Stations météo

réclame
Mon MeteoGroup
Bordeaux/Merignac, France (7510): Température de l'air & dewpoint: 08.08.2018 19:00:00 - 14.08.2018 19:00:00 (CEST)Bordeaux/Merignac, France (7510): Température de l'air 5cm: 08.08.2018 19:00:00 - 14.08.2018 19:00:00 (CEST)Bordeaux/Merignac, France (7510): Température de l'air -20cm & Température de l'air -100cm: 08.08.2018 19:00:00 - 14.08.2018 19:00:00 (CEST)Bordeaux/Merignac, France (7510): Vitesse du vent & gusts: 08.08.2018 19:00:00 - 14.08.2018 19:00:00 (CEST)Bordeaux/Merignac, France (7510): Direction du vent: 08.08.2018 19:00:00 - 14.08.2018 19:00:00 (CEST)Bordeaux/Merignac, France (7510): reduced air pressure: 08.08.2018 19:00:00 - 14.08.2018 19:00:00 (CEST)Bordeaux/Merignac, France (7510): visibility: 08.08.2018 19:00:00 - 14.08.2018 19:00:00 (CEST)Bordeaux/Merignac, France (7510): Quantités de précipitations: 08.08.2018 19:00:00 - 14.08.2018 19:00:00 (CEST)
Date & Time tt [°C] td [°C] tt 5cm [°C] tt -20cm [°C] tt -100cm [°C] ff [km/h] ff [knt] fx [km/h] fx [knt] dd ppp [hPa] vv [km] rr [mm]
14.08.2018 19:00:00 24,7 14,5 27,9 27,6 24,2 20 11 34 18 NW 1021,3 44 0,0
14.08.2018 18:00:00 25,6 13,8 27,0 27,3 24,2 17 9 30 16 NW 1021,2 50 0,0
14.08.2018 17:00:00 26,8 14,2 28,4 26,8 24,2 16 9 31 17 NW 1021,2 40 0,0
14.08.2018 16:00:00 26,7 14,5 27,3 26,4 24,3 13 7 29 16 WNW 1021,2 29 0,0
14.08.2018 15:00:00 25,4 14,8 27,8 25,9 24,2 16 9 32 17 NW 1021,4 31 0,0
14.08.2018 14:00:00 25,7 13,5 26,8 25,5 24,3 20 11 31 17 NNW 1021,4 29 0,0
14.08.2018 13:00:00 24,1 13,9 25,1 25,2 24,2 18 10 42 23 NNW 1021,4 58 0,0
14.08.2018 12:00:00 23,6 14,9 25,2 25,0 24,2 16 9 26 14 WNW 1021,1 58 0,0
14.08.2018 11:00:00 22,3 15,2 24,3 24,8 24,3 9 5 18 10 NW 1021,0 52 0,0
14.08.2018 10:00:00 21,8 16,7 21,4 24,8 24,3 9 5 17 9 NNW 1020,7 32 0,0
14.08.2018 09:00:00 19,7 16,9 19,2 24,9 24,3 8 4 12 7 NW 1020,4 40 0,0
14.08.2018 08:00:00 18,7 16,5 18,1 25,0 24,3 9 5 15 8 NNW 1019,9 53 0,0
14.08.2018 07:00:00 18,4 16,2 18,0 25,2 24,3 8 4 15 8 W 1019,1 52 0,0
14.08.2018 06:00:00 18,4 16,6 16,6 25,3 24,2 8 5 10 5 WSW 1018,4 26 0,0
14.08.2018 05:00:00 18,7 16,5 18,0 25,5 24,2 6 4 8 4 SW 1018,4 54 0,0
14.08.2018 04:00:00 18,6 16,2 18,4 25,6 24,3 7 4 13 7 SW 1018,2 60 0,0
14.08.2018 03:00:00 19,0 16,0 18,7 25,8 24,2 9 5 23 12 W 1018,2 32 0,0
14.08.2018 02:00:00 19,5 16,2 19,1 25,9 24,3 10 5 20 11 W 1018,0 49 0,0
14.08.2018 01:00:00 19,3 16,3 19,1 26,1 24,3 8 5 16 8 WSW 1017,8 60 0,0
14.08.2018 00:00:00 19,5 16,7 19,1 26,3 24,3 13 7 25 13 WSW 1017,5 60 0,0
13.08.2018 23:00:00 19,8 16,4 19,1 26,5 24,3 8 5 15 8 SW 1017,1 60 0,0
13.08.2018 22:00:00 20,3 16,1 19,5 26,7 24,3 11 6 23 12 W 1016,6 60 0,0
13.08.2018 21:00:00 21,1 16,5 21,0 26,8 24,3 18 10 27 15 W 1016,2 60 0,0
13.08.2018 20:00:00 21,9 16,0 22,5 26,9 24,3 24 13 37 20 W 1015,6 53 0,0
13.08.2018 19:00:00 22,2 16,9 20,0 27,0 24,3 25 14 35 19 WNW 1015,6 44 0,0
13.08.2018 18:00:00 21,7 17,9 19,2 26,9 24,3 21 11 29 16 WSW 1015,5 18 0,2
13.08.2018 17:00:00 21,2 17,4 19,4 26,8 24,2 27 15 43 23 W 1015,7 4,0 0,0
13.08.2018 16:00:00 22,9 17,8 20,2 26,7 24,3 28 15 41 22 WNW 1015,4 54 0,0
13.08.2018 15:00:00 24,5 16,5 25,3 26,4 24,3 25 14 36 19 W 1015,1 60 0,0
13.08.2018 14:00:00 24,5 16,5 26,8 26,2 24,3 27 15 40 21 W 1015,0 40 0,0
13.08.2018 13:00:00 24,2 16,5 25,6 26,0 24,3 24 13 38 21 WSW 1015,0 20 0,0
13.08.2018 12:00:00 24,3 16,3 25,2 25,8 24,2 20 11 32 17 WSW 1014,9 46 0,0
13.08.2018 11:00:00 23,6 16,4 23,9 25,8 24,2 16 9 31 17 W 1014,7 55 0,0
13.08.2018 10:00:00 22,2 16,9 21,9 25,8 24,3 13 7 21 11 SSW 1014,6 20 0,0
13.08.2018 09:00:00 20,9 16,7 19,9 25,9 24,2 11 6 16 9 SW 1014,3 52 0,0
13.08.2018 08:00:00 19,7 16,5 18,8 26,1 24,2 8 4 11 6 SW 1013,9 33 0,0
13.08.2018 07:00:00 19,8 16,8 18,8 26,3 24,2 7 4 10 6 SW 1013,7 40 0,0
13.08.2018 06:00:00 19,9 18,0 19,2 26,5 24,2 6 3 11 6 SW 1013,6 25 0,0
13.08.2018 05:00:00 20,5 18,8 20,0 26,7 24,2 8 4 14 8 SW 1013,9 27 0,0
13.08.2018 04:00:00 21,0 19,6 20,1 26,9 24,2 7 4 14 7 SW 1014,1 17 0,0
13.08.2018 03:00:00 21,3 19,4 20,7 27,1 24,2 7 4 11 6 SSW 1014,0 19 0,0
13.08.2018 02:00:00 21,3 19,2 20,9 27,3 24,2 8 4 14 8 SSW 1014,3 32 0,0
13.08.2018 01:00:00 21,7 19,4 21,2 27,6 24,2 11 6 16 9 SW 1014,5 36 0,0
13.08.2018 00:00:00 22,0 19,2 21,7 27,8 24,2 10 5 18 10 WSW 1014,0 42 0,0
12.08.2018 23:00:00 22,2 18,8 21,9 28,0 24,2 11 6 19 11 W 1013,7 47 0,0
12.08.2018 22:00:00 22,7 18,7 22,4 28,2 24,2 15 8 27 15 W 1014,0 46 0,0
12.08.2018 21:00:00 23,2 17,9 23,3 28,4 24,2 18 10 32 18 W 1013,6 57 0,0
12.08.2018 20:00:00 24,8 16,8 25,2 28,5 24,2 19 10 32 17 WNW 1012,4 54 0,0
12.08.2018 19:00:00 26,6 16,2 27,1 28,4 24,2 20 11 29 16 WNW 1012,2 52 0,0
12.08.2018 18:00:00 29,6 15,3 33,5 28,1 24,2 22 12 31 17 WNW 1011,8 30 0,0
12.08.2018 17:00:00 30,9 17,6 35,8 27,6 24,2 21 12 31 17 WSW 1012,0 34 0,0
12.08.2018 16:00:00 31,2 18,2 34,4 27,1 24,2 20 11 39 21 W 1012,5 40 0,0
12.08.2018 15:00:00 31,2 19,2 34,3 26,4 24,2 21 11 36 19 WSW 1013,2 42 0,0
12.08.2018 14:00:00 31,6 16,4 35,6 25,8 24,3 10 6 41 22 WSW 1013,3 49 0,0
12.08.2018 13:00:00 30,1 14,6 35,0 25,3 24,3 13 7 26 14 SSW 1014,0 38 0,0
12.08.2018 12:00:00 29,2 13,8 32,9 24,9 24,2 10 5 22 12 S 1014,4 55 0,0
12.08.2018 11:00:00 27,1 14,1 29,5 24,6 24,2 13 7 22 12 SSE 1014,8 52 0,0
12.08.2018 10:00:00 24,6 14,1 25,2 24,6 24,2 13 7 18 10 SSE 1014,9 40 0,0
12.08.2018 09:00:00 21,7 14,6 20,4 24,6 24,2 6 3 9 5 SE 1015,2 53 0,0
12.08.2018 08:00:00 18,9 14,0 15,8 24,8 24,2 5 3 9 5 ESE 1015,4 58 0,0
12.08.2018 07:00:00 17,2 13,3 15,3 25,0 24,2 5 3 6 3 ESE 1015,4 59 0,0
12.08.2018 06:00:00 17,4 13,5 14,8 25,2 24,2 5 3 8 5 ESE 1015,7 40 0,0
12.08.2018 05:00:00 17,7 13,8 14,5 25,5 24,3 4 2 6 4 ESE 1016,2 23 0,0
12.08.2018 04:00:00 17,4 15,4 14,3 25,7 24,2 4 2 5 3 ESE 1016,8 25 0,0
12.08.2018 03:00:00 17,9 15,3 14,6 26,0 24,3 0 0 3 2 N 1017,4 37 0,0
12.08.2018 02:00:00 18,5 15,7 15,0 26,3 24,3 2 1 4 2 WNW 1018,1 33 0,0
12.08.2018 01:00:00 19,8 16,4 15,8 26,6 24,3 3 2 8 5 NNE 1018,4 55 0,0
12.08.2018 00:00:00 21,7 16,2 19,1 26,9 24,3 8 4 12 7 NNE 1019,1 60 0,0
11.08.2018 23:00:00 22,6 14,4 20,8 27,2 24,3 10 5 14 8 NNE 1019,4 60 0,0
11.08.2018 22:00:00 23,9 12,8 19,0 27,4 24,3 9 5 12 7 NNE 1019,4 60 0,0
11.08.2018 21:00:00 26,0 8,9 23,8 27,6 24,3 10 6 16 9 ESE 1019,2 60 0,0
11.08.2018 20:00:00 27,6 8,9 29,1 27,6 24,3 10 6 19 10 E 1019,4 59 0,0
11.08.2018 19:00:00 28,2 8,5 31,5 27,4 24,4 13 7 23 12 E 1019,7 50 0,0
11.08.2018 18:00:00 28,1 10,8 32,9 27,1 24,4 10 5 21 11 NNE 1020,1 34 0,0
11.08.2018 17:00:00 28,2 11,7 33,7 26,5 24,4 8 4 23 12 E 1020,7 29 0,0
11.08.2018 16:00:00 27,9 10,6 33,4 25,9 24,4 12 6 26 14 ENE 1021,7 60 0,0
11.08.2018 15:00:00 27,6 11,6 32,7 25,2 24,4 10 5 26 14 E 1022,5 20 0,0
11.08.2018 14:00:00 25,9 11,3 31,5 24,6 24,4 11 6 23 13 E 1023,3 60 0,0
11.08.2018 13:00:00 25,3 12,2 30,2 24,0 24,4 9 5 27 14 E 1024,0 60 0,0
11.08.2018 12:00:00 24,0 11,7 28,2 23,6 24,5 13 7 22 12 ENE 1024,6 30 0,0
11.08.2018 11:00:00 22,9 12,2 25,0 23,4 24,5 12 7 23 12 E 1024,8 59 0,0
11.08.2018 10:00:00 20,7 12,4 21,2 23,4 24,5 13 7 17 9 ENE 1025,2 57 0,0
11.08.2018 09:00:00 18,6 12,8 18,3 23,5 24,5 11 6 19 10 ENE 1025,2 56 0,0
11.08.2018 08:00:00 16,4 12,6 14,5 23,7 24,5 6 3 13 7 NNE 1025,6 50 0,0
11.08.2018 07:00:00 15,4 12,2 14,4 23,9 24,5 7 4 17 9 NE 1025,3 41 0,0
11.08.2018 06:00:00 15,4 12,7 14,3 24,1 24,6 9 5 11 6 NNE 1025,3 53 0,0
11.08.2018 05:00:00 15,7 12,8 14,1 24,3 24,6 5 3 8 4 NNE 1025,6 29 0,0
11.08.2018 04:00:00 15,4 12,7 12,8 24,6 24,6 6 3 13 7 NNE 1025,9 24 0,0
11.08.2018 03:00:00 15,3 12,6 12,7 24,8 24,6 0 0 8 4 N 1026,2 18 0,0
11.08.2018 02:00:00 16,0 12,9 13,9 25,1 24,6 6 4 11 6 N 1026,3 32 0,0
11.08.2018 01:00:00 16,8 12,7 14,7 25,4 24,6 6 4 10 5 N 1026,5 47 0,0
11.08.2018 00:00:00 17,4 12,3 16,4 25,7 24,7 5 3 15 8 N 1026,3 60 0,0
10.08.2018 23:00:00 18,4 12,2 17,3 26,0 24,7 9 5 18 10 NNW 1026,0 60 0,0
10.08.2018 22:00:00 19,4 11,9 18,3 26,2 24,7 9 5 19 11 NW 1025,5 60 0,0
10.08.2018 21:00:00 21,0 12,7 20,4 26,4 24,7 13 7 26 14 NW 1025,1 55 0,0
10.08.2018 20:00:00 22,9 12,5 24,8 26,4 24,7 17 9 28 15 NW 1024,8 24 0,0
10.08.2018 19:00:00 25,0 11,9 26,1 26,4 24,7 17 9 29 16 NW 1024,5 35 0,0
10.08.2018 18:00:00 24,6 10,1 26,2 26,2 24,8 10 6 22 12 NNE 1024,6 48 0,0
10.08.2018 17:00:00 24,9 10,4 26,8 25,9 24,8 11 6 25 13 NNW 1024,8 60 0,0
10.08.2018 16:00:00 24,5 10,0 27,3 25,6 24,8 10 5 20 11 NNW 1025,1 35 0,0
10.08.2018 15:00:00 24,2 10,8 27,6 25,1 24,8 6 3 19 10 WNW 1025,5 51 0,0
10.08.2018 14:00:00 24,4 10,3 27,0 24,6 24,9 5 3 18 10 WNW 1025,7 50 0,0
10.08.2018 13:00:00 23,3 11,4 25,2 24,1 24,9 4 2 16 8 S 1026,1 40 0,0
10.08.2018 12:00:00 22,4 10,8 24,2 23,7 24,9 2 1 12 7 NNE 1026,2 49 0,0
10.08.2018 11:00:00 21,5 12,3 23,6 23,5 24,9 5 3 17 9 ESE 1026,3 41 0,0
10.08.2018 10:00:00 19,5 13,9 21,5 23,4 24,9 7 4 16 8 SE 1026,5 57 0,2
10.08.2018 09:00:00 17,3 14,6 15,4 23,5 24,9 6 3 10 5 ESE 1026,4 40 0,0
10.08.2018 08:00:00 14,1 13,6 10,3 23,7 24,9 2 1 6 3 S 1026,1 12 0,0
10.08.2018 07:00:00 12,6 12,0 10,0 24,0 24,9 6 4 8 4 ESE 1025,8 1,2 0,0
10.08.2018 06:00:00 12,6 11,8 9,9 24,2 24,9 2 1 5 3 WSW 1025,5 5 0,0
10.08.2018 05:00:00 13,0 12,2 10,4 24,5 25,0 2 1 4 2 SW 1025,2 2,2 0,0
10.08.2018 04:00:00 13,4 12,5 10,8 24,8 25,0 2 1 12 7 NW 1025,5 13 0,0
10.08.2018 03:00:00 13,7 12,8 11,1 25,1 25,0 0 0 5 3 N 1025,2 1,0 0,0
10.08.2018 02:00:00 14,3 13,0 11,6 25,4 25,0 4 2 5 3 WSW 1025,4 0,7 0,0
10.08.2018 01:00:00 15,4 13,2 12,9 25,7 25,0 2 1 6 3 W 1025,2 12 0,0
10.08.2018 00:00:00 16,4 13,5 14,3 26,1 25,0 5 3 15 8 W 1024,6 43 0,0
09.08.2018 23:00:00 17,5 13,8 16,5 26,4 25,0 12 6 16 9 WNW 1024,0 60 0,0
09.08.2018 22:00:00 18,8 13,9 17,6 26,7 25,1 6 3 18 10 WNW 1023,6 59 0,0
09.08.2018 21:00:00 20,4 13,6 19,8 26,9 25,1 14 8 23 12 W 1022,8 49 0,0
09.08.2018 20:00:00 21,3 12,4 21,2 27,1 25,1 18 10 29 15 W 1022,1 53 0,0
09.08.2018 19:00:00 22,0 12,8 22,5 27,1 25,1 18 10 30 16 WNW 1021,6 39 0,0
09.08.2018 18:00:00 22,8 13,6 24,3 26,9 25,1 21 12 38 21 WNW 1021,0 50 0,0
09.08.2018 17:00:00 24,1 12,4 24,6 26,7 25,1 18 10 38 20 W 1020,5 34 0,0
09.08.2018 16:00:00 23,9 12,8 26,3 26,4 25,1 23 13 43 23 WNW 1020,1 31 0,0
09.08.2018 15:00:00 23,1 12,7 25,8 26,0 25,2 22 12 35 19 NW 1019,7 37 0,0
09.08.2018 14:00:00 22,3 13,9 21,9 25,8 25,2 23 12 34 19 NW 1019,4 56 0,0
09.08.2018 13:00:00 20,2 16,6 17,5 25,6 25,1 17 9 40 22 WNW 1019,0 53 0,4
09.08.2018 12:00:00 21,4 16,8 21,2 25,5 25,2 21 12 36 20 W 1017,6 12 0,0
09.08.2018 11:00:00 19,9 17,5 18,8 25,6 25,2 18 10 25 13 WSW 1016,8 31 0,0
09.08.2018 10:00:00 18,1 17,1 17,4 25,7 25,2 15 8 22 12 WSW 1016,1 20 0,2
09.08.2018 09:00:00 17,3 16,8 16,7 25,9 25,2 13 7 23 12 WSW 1015,3 9 0,4
09.08.2018 08:00:00 17,0 16,4 16,5 26,2 25,2 9 5 18 10 W 1013,8 9 0,2
09.08.2018 07:00:00 16,8 16,2 16,3 26,5 25,2 10 6 21 12 WNW 1012,7 18 0,0
09.08.2018 06:00:00 17,0 16,4 16,6 26,8 25,2 16 9 30 16 W 1011,9 26 0,0
09.08.2018 05:00:00 18,4 17,6 17,6 27,2 25,2 18 10 32 17 SW 1011,2 20 4,1
09.08.2018 04:00:00 18,4 17,2 17,6 27,4 25,2 12 7 25 13 W 1010,5 29 0,6
09.08.2018 03:00:00 18,6 17,1 17,0 27,6 25,2 14 8 29 15 ESE 1009,3 7 2,0
09.08.2018 02:00:00 19,5 15,8 17,1 27,9 25,2 17 9 28 15 NNE 1009,6 10 0,8
09.08.2018 01:00:00 20,8 14,2 18,6 28,1 25,2 13 7 24 13 NE 1011,5 58 0,0
09.08.2018 00:00:00 21,8 13,4 21,4 28,3 25,2 11 6 29 16 N 1012,3 60 0,0
08.08.2018 23:00:00 21,8 14,7 21,4 28,4 25,2 18 10 29 16 N 1011,7 60 0,0
08.08.2018 22:00:00 23,3 16,3 22,7 28,5 25,3 18 10 27 15 N 1012,5 60 0,0
08.08.2018 21:00:00 24,8 17,8 24,7 28,5 25,3 16 8 25 14 N 1011,6 60 0,0
08.08.2018 20:00:00 26,6 16,8 29,2 28,5 25,3 15 8 24 13 NE 1011,8 42 0,0
08.08.2018 19:00:00 26,7 16,9 27,5 28,3 25,3 14 8 23 12 NNE 1012,2 54 0,0

tt = Température de l'air
td = dewpoint
tt 5cm = Température de l'air 5cm
tt -20cm = Température de l'air -20cm
tt -100cm = Température de l'air -100cm
ff = Vitesse du vent
fx = gusts
dd = Direction du vent
ppp = reduced air pressure
vv = visibility
rr = Quantités de précipitations

stations d'obs. à proximité